Terug naar catalogus

STARLINK-36576

ActiefCommunicatieSSO
NORAD 67534·PAYLOAD·🇺🇸 United States

Gelanceerd Jan 22, 2026 vanaf Vandenberg Space Force Base

Loading…

Volgende Passages (komende 24 uur)

TLE

VersSource: CelesTrak SupGP

Epoch: Sep 15, 2026, 04:18 UTC

1 67534C 26014C   26258.17965278  .00032069  00000+0  99509-3 0  2588
2 67534  97.2845 143.5930 0002048  96.6477 172.7327 15.33435043    11

Volg STARLINK-36576 in realtime met AllMySat

Download on the App Store